EA5SW-13 Weather Reports


Display with metric or nautical units.
time (UTC)temp
F
wind
direction
speed
MPH
gust
MPH
rain 1hr
in
rain 24hr
in
rain mn
in
humidity
%
barometer
mb
20221003134114 78 281 0.0 1.0 0.00 0.00 0.00 61 1020.3
20221003133111 79 225 0.0 1.0 0.00 0.00 0.00 61 1020.2
20221003132108 78 0.0 1.0 0.00 0.00 0.00 62 1020.3
20221003131125 77 90 0.0 2.0 0.00 0.00 0.00 63 1020.5
20221003130102 77 301 0.0 1.0 0.00 0.00 0.00 61 1020.5
20221003125059 78 315 0.0 1.0 0.00 0.00 0.00 61 1020.5
20221003124137 77 0.0 0.0 0.00 0.00 0.00 60 1020.6
20221003123113 77 0.0 0.0 0.00 0.00 0.00 60 1020.7
20221003122050 77 270 0.0 1.0 0.00 0.00 0.00 60 1020.7
20221003121047 77 292 0.0 1.0 0.00 0.00 0.00 59 1021.0
20221003120105 77 360 0.0 1.0 0.00 0.00 0.00 57 1021.1
20221003115040 77 315 0.0 1.0 0.00 0.00 0.00 59 1021.3
20221003114038 76 45 0.0 1.0 0.00 0.00 0.00 60 1021.3
20221003113055 76 180 0.0 1.0 0.00 0.00 0.00 60 1021.5
20221003112031 76 0.0 0.0 0.00 0.00 0.00 60 1021.5
20221003111028 75 315 0.0 1.0 0.00 0.00 0.00 60 1021.7
20221003110025 74 0.0 0.0 0.00 0.00 0.00 58 1021.8
20221003105042 74 225 0.0 2.0 0.00 0.00 0.00 55 1021.9
20221003104019 74 0.0 0.0 0.00 0.00 0.00 52 1021.9
20221003103036 73 5 0.0 2.0 0.00 0.00 0.00 51 1022.0
20221003102113 73 157 0.0 1.0 0.00 0.00 0.00 51 1022.1
20221003101110 73 44 1.0 3.0 0.00 0.00 0.00 49 1022.3
20221003100107 72 90 1.0 3.0 0.00 0.00 0.00 47 1022.2
20221003095104 72 90 1.0 3.0 0.00 0.00 0.00 47 1022.2
20221003094101 71 58 2.0 3.0 0.00 0.00 0.00 50 1022.2
20221003093058 71 90 0.0 2.0 0.00 0.00 0.00 50 1022.3
20221003092055 71 37 1.0 3.0 0.00 0.00 0.00 50 1022.3
20221003091051 70 0.0 0.0 0.00 0.00 0.00 50 1022.3
20221003090048 70 0.0 0.0 0.00 0.00 0.00 50 1022.3
20221003085045 70 270 0.0 1.0 0.00 0.00 0.00 48 1022.2
20221003084042 69 351 0.0 2.0 0.00 0.00 0.00 47 1022.2
20221003083039 69 0 0.0 1.0 0.00 0.00 0.00 46 1022.1
20221003082036 68 319 0.0 2.0 0.00 0.00 0.00 46 1022.0
20221003081033 68 225 0.0 1.0 0.00 0.00 0.00 46 1022.1
20221003080030 68 337 0.0 2.0 0.00 0.00 0.00 46 1022.0
20221003075027 67 315 0.0 2.0 0.00 0.00 0.00 46 1021.9
20221003074024 67 270 0.0 0.0 0.00 0.00 0.00 47 1021.9
20221003073020 67 225 0.0 1.0 0.00 0.00 0.00 47 1021.9
20221003072017 66 109 1.0 3.0 0.00 0.00 0.00 48 1021.9
20221003071114 66 241 0.0 2.0 0.00 0.00 0.00 50 1021.7
20221003070110 65 239 0.0 1.0 0.00 0.00 0.00 51 1021.6
20221003065107 65 90 0.0 3.0 0.00 0.00 0.00 51 1021.7
20221003064104 65 202 0.0 1.0 0.00 0.00 0.00 53 1021.5
20221003063101 64 35 0.0 1.0 0.00 0.00 0.00 55 1021.5
20221003062139 64 202 0.0 2.0 0.00 0.00 0.00 57 1021.3
20221003061115 64 159 0.0 2.0 0.00 0.00 0.00 59 1021.3
20221003060052 64 270 0.0 1.0 0.00 0.00 0.00 58 1021.3
20221003055049 64 159 0.0 2.0 0.00 0.00 0.00 59 1021.4
20221003054046 64 0.0 0.0 0.00 0.00 0.00 59 1021.4
20221003053043 64 90 1.0 3.0 0.00 0.00 0.00 59 1021.4
20221003052040 64 112 0.0 2.0 0.00 0.00 0.00 60 1021.6
20221003051037 64 139 0.0 2.0 0.00 0.00 0.00 60 1021.4
20221003050034 64 112 0.0 1.0 0.00 0.00 0.00 60 1021.4
20221003045031 64 0.0 0.0 0.00 0.00 0.00 58 1021.5
20221003044028 65 167 0.0 1.0 0.00 0.00 0.00 58 1021.5
20221003043025 64 0.0 0.0 0.00 0.00 0.00 60 1021.4
20221003042022 64 0.0 0.0 0.00 0.00 0.00 62 1021.4
20221003041019 64 0.0 0.0 0.00 0.00 0.00 63 1021.3
20221003040036 64 0.0 0.0 0.00 0.00 0.00 63 1021.3
20221003035113 64 0.0 0.0 0.00 0.00 0.00 63 1021.3
20221003034109 64 0.0 0.0 0.00 0.00 0.00 63 1021.2
20221003033107 64 0.0 1.0 0.00 0.00 0.00 64 1021.3
20221003032125 64 0.0 0.0 0.00 0.00 0.00 65 1021.4
20221003031101 64 116 0.0 1.0 0.00 0.00 0.00 65 1021.7
20221003030057 64 135 0.0 1.0 0.00 0.00 0.00 65 1021.7
20221003025054 64 45 0.0 0.0 0.00 0.00 0.00 65 1021.8
20221003024051 64 0.0 0.0 0.00 0.00 0.00 64 1021.8
20221003022045 64 97 1.0 2.0 0.00 0.00 0.00 64 1022.0
20221003021042 64 90 0.0 2.0 0.00 0.00 0.00 65 1022.0
20221003020059 64 85 0.0 3.0 0.00 0.00 0.00 66 1022.0
20221003015036 64 128 0.0 3.0 0.00 0.00 0.00 66 1022.0
20221003014033 65 27 1.0 3.0 0.00 0.00 0.00 66 1022.2
20221003013030 65 90 0.0 1.0 0.00 0.00 0.00 68 1022.2
20221003012027 65 225 0.0 0.0 0.00 0.00 0.00 69 1022.2
20221003011023 65 225 0.0 2.0 0.00 0.00 0.00 70 1022.1
20221003010040 65 0.0 0.0 0.00 0.00 0.00 70 1022.2
20221003005016 65 270 0.0 1.0 0.00 0.00 0.00 70 1022.2
20221003004113 64 270 0.0 1.0 0.00 0.00 0.00 70 1022.3
20221003003109 64 120 0.0 1.0 0.00 0.00 0.00 70 1022.3
20221003002106 64 0.0 0.0 0.00 0.00 0.00 70 1022.6
20221003001103 65 215 1.0 3.0 0.00 0.00 0.00 70 1022.7
20221003000100 65 121 1.0 3.0 0.00 0.00 0.00 70 1022.8
20221002235056 65 67 1.0 3.0 0.00 0.00 0.00 71 1022.7
20221002234114 65 315 0.0 1.0 0.00 0.00 0.00 71 1022.8
20221002233050 66 171 0.0 3.0 0.00 0.00 0.00 71 1022.9
20221002232047 66 107 1.0 2.0 0.00 0.00 0.00 71 1023.0
20221002231044 66 0.0 1.0 0.00 0.00 0.00 71 1023.1
20221002230041 66 202 0.0 2.0 0.00 0.00 0.00 72 1023.3
20221002225038 66 106 1.0 3.0 0.00 0.00 0.00 72 1023.3
20221002224035 66 124 0.0 3.0 0.00 0.00 0.00 72 1023.3
20221002223032 67 112 0.0 2.0 0.00 0.00 0.00 71 1023.4
20221002222029 67 0 0.0 1.0 0.00 0.00 0.00 71 1023.4
20221002221025 68 52 1.0 2.0 0.00 0.00 0.00 71 1023.5
20221002220022 68 121 0.0 1.0 0.00 0.00 0.00 71 1023.4
20221002215020 68 0.0 0.0 0.00 0.00 0.00 71 1023.4
20221002214016 69 235 0.0 1.0 0.00 0.00 0.00 71 1023.4
20221002213113 69 270 0.0 2.0 0.00 0.00 0.00 71 1023.4
20221002212110 69 229 1.0 2.0 0.00 0.00 0.00 71 1023.3
20221002211107 68 230 1.0 2.0 0.00 0.00 0.00 72 1023.4
20221002210104 68 0.0 0.0 0.00 0.00 0.00 71 1023.5
20221002205121 68 0.0 0.0 0.00 0.00 0.00 71 1023.6
20221002204059 68 0.0 0.0 0.00 0.00 0.00 71 1023.6
20221002203055 68 0.0 0.0 0.00 0.00 0.00 71 1023.6
20221002202052 68 0.0 0.0 0.00 0.00 0.00 71 1023.6
20221002201049 68 0.0 0.0 0.00 0.00 0.00 71 1023.4
20221002200046 68 0.0 0.0 0.00 0.00 0.00 71 1023.3
20221002195043 68 0.0 0.0 0.00 0.00 0.00 70 1023.1
20221002194040 68 0.0 0.0 0.00 0.00 0.00 70 1023.1
20221002193058 68 0.0 0.0 0.00 0.00 0.00 70 1023.1
20221002192055 69 0.0 0.0 0.00 0.00 0.00 70 1023.0
20221002191030 69 0.0 0.0 0.00 0.00 0.00 68 1023.0
20221002190027 69 0.0 0.0 0.00 0.00 0.00 68 1023.0
20221002185024 70 0.0 0.0 0.00 0.00 0.00 67 1022.9
20221002184021 70 0.0 0.0 0.00 0.00 0.00 67 1022.9
20221002183038 70 0.0 0.0 0.00 0.00 0.00 66 1022.8
20221002182015 71 0.0 0.0 0.00 0.00 0.00 66 1022.8
20221002181112 71 0.0 0.0 0.00 0.00 0.00 65 1022.8
20221002180110 71 0.0 0.0 0.00 0.00 0.00 64 1022.8
20221002175107 72 0.0 0.0 0.00 0.00 0.00 63 1022.9
20221002174103 72 0.0 0.0 0.00 0.00 0.00 60 1022.9
20221002173101 73 0.0 0.0 0.00 0.00 0.00 60 1023.1
20221002172057 74 0.0 0.0 0.00 0.00 0.00 59 1023.2
20221002171055 74 191 0.0 1.0 0.00 0.00 0.00 59 1023.3
20221002170050 75 196 0.0 3.0 0.00 0.00 0.00 58 1023.4
20221002165107 75 270 0.0 1.0 0.00 0.00 0.00 57 1023.3
20221002164044 75 344 1.0 2.0 0.00 0.00 0.00 57 1023.3
20221002163041 76 270 0.0 2.0 0.00 0.00 0.00 56 1023.3
20221002162038 76 305 1.0 2.0 0.00 0.00 0.00 55 1023.2
20221002161035 76 336 0.0 2.0 0.00 0.00 0.00 54 1023.4
20221002160032 76 0 0.0 1.0 0.00 0.00 0.00 53 1023.2
20221002155029 77 227 0.0 2.0 0.00 0.00 0.00 52 1023.2
20221002154026 77 2 1.0 3.0 0.00 0.00 0.00 52 1023.4
20221002153023 77 270 0.0 2.0 0.00 0.00 0.00 50 1023.3
20221002152019 77 315 0.0 1.0 0.00 0.00 0.00 51 1023.4
20221002151138 77 22 0.0 2.0 0.00 0.00 0.00 50 1023.5
20221002150113 77 11 0.0 2.0 0.00 0.00 0.00 48 1023.4
20221002145110 77 225 0.0 1.0 0.00 0.00 0.00 49 1023.5
20221002144107 77 112 0.0 2.0 0.00 0.00 0.00 49 1023.7
20221002143124 77 217 0.0 2.0 0.00 0.00 0.00 49 1023.9
20221002142121 77 241 0.0 3.0 0.00 0.00 0.00 47 1024.1
20221002141058 78 315 0.0 1.0 0.00 0.00 0.00 46 1024.3
20221002140055 78 87 1.0 2.0 0.00 0.00 0.00 45 1024.4
20221002135053 77 315 0.0 2.0 0.00 0.00 0.00 46 1024.4